(231860) = 2000 SZ185 = 2004 TP164

Discovered at Kitt Peak on 2000-09-21 by Spacewatch.

Orbit

Orbit type: Main Belt

Note: WebGL enabled browser required.

epoch2023-09-13.0
epoch JD2460200.5
perihelion date2023-06-22.60793
perihelion JD2460118.10793
argument of perihelion (°)147.43129
ascending node (°)196.68402
inclination (°)5.88574
eccentricity0.1335447
perihelion distance (AU)2.1179768
Tisserand w.r.t. Jupiter3.5
ΔV w.r.t. Earth (km/sec)9.3
semimajor axis (AU)2.4444154
mean anomaly (°)21.24842
mean daily motion (°/day)0.25789410
aphelion distance (AU)2.771
period (years)3.82
P-vector [x]0.96099975
P-vector [y]-0.27058067
P-vector [z]-0.05714531
Q-vector [x]0.27497777
Q-vector [y]0.91291870
Q-vector [z]0.30160682
absolute magnitude17.31
phase slope0.15
uncertainty0
referenceMPEC 2024-A65
observations used333
oppositions15
arc length (days)8506
first opposition used2000
last opposition used2024
residual rms (arc-secs)0.74
perturbers coarse indicatorM-v
perturbers precise indicator003Ek
first observation date used2000-09-21.0
last observation date used2024-01-05.0
computer nameMPCLINUX
JD of orbit computation2456760.887689
perihelion JD uncertainty (days)1.5521E-04
argument of perihelion uncertainty (°)5.9852E-05
ascending node uncertainty (°)5.0087E-05
inclination uncertainty (°)8.4904E-06
eccentricity uncertainty 6.2016E-08
perihelion distance uncertainty (AU)1.5435E-07
Minimum Orbit Intersection Distances (in AU)
for orbit epoch: 2460200.5, reference: E2023-W21
Mercury1.73319
Venus1.39763
Earth1.11293
Mars0.74121
Jupiter2.62856
Saturn6.47497
Uranus15.6828
Neptune27.549

Observations

342 total observations over interval: 2000 09 21.33954 – 2024 01 05.268859
These data are available for download (format description).

Date (UT) J2000 RA J2000 Dec Magn Location Ref
2000 09 21.33954 00 44 30.81 +06 59 30.5 20.6 V 691 – Steward Observatory, Kitt Peak-Spacewatch MPS 20103
2000 09 21.36082 00 44 29.82 +06 59 20.1 20.7 V 691 – Steward Observatory, Kitt Peak-Spacewatch MPS 20103
2000 09 21.38209 00 44 28.84 +06 59 09.2 20.5 V 691 – Steward Observatory, Kitt Peak-Spacewatch MPS 20103
2000 09 24.35182 00 42 16.43 +06 33 43.2 19.7   704 – Lincoln Laboratory ETS, New Mexico MPS 20103
2000 09 24.36706 00 42 15.75 +06 33 34.4 19.8   704 – Lincoln Laboratory ETS, New Mexico MPS 20103
2000 09 24.38202 00 42 15.08 +06 33 26.0 19.3   704 – Lincoln Laboratory ETS, New Mexico MPS 20103
2000 10 01.24365 00 36 53.13 +05 31 31.2 19.5   704 – Lincoln Laboratory ETS, New Mexico MPS 20103
2000 10 01.25876 00 36 52.35 +05 31 23.6 19.8   704 – Lincoln Laboratory ETS, New Mexico MPS 20103
2000 10 01.27387 00 36 51.59 +05 31 14.3 19.8   704 – Lincoln Laboratory ETS, New Mexico MPS 20103
2000 10 01.28927 00 36 50.76 +05 31 06.6 20.0   704 – Lincoln Laboratory ETS, New Mexico MPS 20103
2000 10 01.30939 00 36 49.75 +05 30 53.7 19.6 R 699 – Lowell Observatory-LONEOS MPS 21327
2000 10 01.32936 00 36 48.70 +05 30 44.4   699 – Lowell Observatory-LONEOS MPS 21327
2000 10 01.34936 00 36 47.79 +05 30 31.7   699 – Lowell Observatory-LONEOS MPS 21327
2000 10 01.36938 00 36 46.84 +05 30 20.1   699 – Lowell Observatory-LONEOS MPS 21327
2000 10 02.30336 00 36 02.50 +05 21 44.4 19.6   704 – Lincoln Laboratory ETS, New Mexico MPS 20103
2000 10 02.31894 00 36 01.73 +05 21 35.5 19.9   704 – Lincoln Laboratory ETS, New Mexico MPS 20103
2000 10 02.33510 00 36 00.93 +05 21 27.4 20.1   704 – Lincoln Laboratory ETS, New Mexico MPS 20103
2000 10 02.35061 00 36 00.01 +05 21 18.5 20.2   704 – Lincoln Laboratory ETS, New Mexico MPS 20103
2000 10 02.36622 00 35 59.29 +05 21 10.4 20.2   704 – Lincoln Laboratory ETS, New Mexico MPS 20103
2003 04 05.43968 16 03 38.14 -16 34 36.5 21.5 V 691 – Steward Observatory, Kitt Peak-Spacewatch MPS 125578
2003 04 05.46682 16 03 37.91 -16 34 31.2 21.9 V 691 – Steward Observatory, Kitt Peak-Spacewatch MPS 125578
2003 04 05.49394 16 03 37.65 -16 34 23.9 21.2 V 691 – Steward Observatory, Kitt Peak-Spacewatch MPS 125578
2003 06 07.28158 15 18 53.87 -11 26 25.0 21.1 V 291 – LPL/Spacewatch II MPS 125578
2003 06 07.28537 15 18 53.69 -11 26 24.1 21.3 V 291 – LPL/Spacewatch II MPS 125578
2003 06 07.29541 15 18 53.19 -11 26 22.1 21.1 V 291 – LPL/Spacewatch II MPS 125578
2004 10 06.45109 03 00 30.67 +14 17 20.9 20.4 V 691 – Steward Observatory, Kitt Peak-Spacewatch MPS 117873
2004 10 06.47847 03 00 29.83 +14 17 10.9 20.5 V 691 – Steward Observatory, Kitt Peak-Spacewatch MPS 117873
2004 10 06.50591 03 00 28.98 +14 17 00.7 20.3 V 691 – Steward Observatory, Kitt Peak-Spacewatch MPS 117873
2004 10 10.36642 02 58 26.03 +13 52 37.7 20.0 V 691 – Steward Observatory, Kitt Peak-Spacewatch MPS 117873
2004 10 10.39353 02 58 25.01 +13 52 26.9 20.1 V 691 – Steward Observatory, Kitt Peak-Spacewatch MPS 117873
2004 10 10.42129 02 58 23.94 +13 52 16.0 20.1 V 691 – Steward Observatory, Kitt Peak-Spacewatch MPS 117873
2004 10 14.38547 02 55 51.80 +13 25 22.3 20.2 V 691 – Steward Observatory, Kitt Peak-Spacewatch MPS 125730
2004 10 14.38824 02 55 51.71 +13 25 21.0 20.3 V 691 – Steward Observatory, Kitt Peak-Spacewatch MPS 125730
2004 10 14.41362 02 55 50.54 +13 25 09.9 20.8 V 691 – Steward Observatory, Kitt Peak-Spacewatch MPS 125730
2004 10 14.41624 02 55 50.47 +13 25 09.4 20.2 V 691 – Steward Observatory, Kitt Peak-Spacewatch MPS 125730
2004 10 14.44557 02 55 49.18 +13 24 56.7 20.1 V 691 – Steward Observatory, Kitt Peak-Spacewatch MPS 125730
2004 10 14.44818 02 55 49.06 +13 24 56.0 20.0 V 691 – Steward Observatory, Kitt Peak-Spacewatch MPS 125730
2004 11 03.38498 02 38 57.40 +10 56 21.7 19.2   644 – Palomar Mountain/NEAT MPS 125730
2004 11 03.41066 02 38 55.93 +10 56 10.0 19.2   644 – Palomar Mountain/NEAT MPS 125730
2004 11 03.43111 02 38 54.77 +10 56 00.7 19.4   644 – Palomar Mountain/NEAT MPS 125730
2008 09 29.49387 04 52 19.95 +18 10 04.9 20.7 V G96 – Mt. Lemmon Survey MPS 257738
2008 09 29.49891 04 52 20.10 +18 10 04.0 21.1 V G96 – Mt. Lemmon Survey MPS 257738
2008 09 29.50395 04 52 20.24 +18 10 03.6 20.4 V G96 – Mt. Lemmon Survey MPS 257738
2008 09 29.50895 04 52 20.35 +18 10 02.4 20.2 V G96 – Mt. Lemmon Survey MPS 257738
2008 12 08.14517 04 17 26.16 +13 17 54.3 19.7 V G96 – Mt. Lemmon Survey MPS 268764
2008 12 08.14907 04 17 25.90 +13 17 53.0 18.8 V G96 – Mt. Lemmon Survey MPS 268764
2008 12 08.15699 04 17 25.44 +13 17 52.5 19.5 V G96 – Mt. Lemmon Survey MPS 268764
2008 12 22.27664 04 05 54.70 +12 47 54.9 20.4 V 703 – Catalina Sky Survey MPS 269179
2008 12 22.28257 04 05 54.42 +12 47 52.5 21.0 V 703 – Catalina Sky Survey MPS 269179
2008 12 22.28855 04 05 54.24 +12 47 52.5 20.3 V 703 – Catalina Sky Survey MPS 269179
2008 12 22.29465 04 05 54.06 +12 47 51.5 21.0 V 703 – Catalina Sky Survey MPS 269179
2010 02 17.38577 11 38 43.00 -02 31 41.5 21.3 V 691 – Steward Observatory, Kitt Peak-Spacewatch MPS 312942
2010 02 17.40083 11 38 42.39 -02 31 37.2 20.7 V 691 – Steward Observatory, Kitt Peak-Spacewatch MPS 312942
2010 02 17.41590 11 38 41.76 -02 31 32.2 21.2 V 691 – Steward Observatory, Kitt Peak-Spacewatch MPS 312942
2010 02 19.39098 11 37 22.72 -02 21 33.3   691 – Steward Observatory, Kitt Peak-Spacewatch MPS 312942
2010 02 19.40862 11 37 21.96 -02 21 28.3   691 – Steward Observatory, Kitt Peak-Spacewatch MPS 312942
2010 02 19.42626 11 37 21.21 -02 21 22.5   691 – Steward Observatory, Kitt Peak-Spacewatch MPS 312942
2010 03 13.20041 11 19 38.28 +00 01 58.4 21.4 V 691 – Steward Observatory, Kitt Peak-Spacewatch MPS 319193
2010 03 13.21802 11 19 37.34 +00 02 06.2 20.9 V 691 – Steward Observatory, Kitt Peak-Spacewatch MPS 319193
2010 03 13.23563 11 19 36.40 +00 02 13.8 21.0 V 691 – Steward Observatory, Kitt Peak-Spacewatch MPS 319193
2010 03 13.30867 11 19 32.44 +00 02 46.7 21.3 V G96 – Mt. Lemmon Survey MPS 319193
2010 03 13.31890 11 19 31.90 +00 02 51.3 21.3 V G96 – Mt. Lemmon Survey MPS 319193
2010 03 13.32921 11 19 31.33 +00 02 55.8 21.4 V G96 – Mt. Lemmon Survey MPS 319193
2010 03 13.33956 11 19 30.75 +00 03 00.5 21.2 V G96 – Mt. Lemmon Survey MPS 319193
2011 07 19.35559 18 49 39.053 -12 17 24.20 19.9 r F51 – Pan-STARRS 1, Haleakala MPS 387723
2011 07 19.39484 18 49 36.907 -12 17 29.71 19.3 i F51 – Pan-STARRS 1, Haleakala MPS 387723
2011 07 19.40582 18 49 36.301 -12 17 31.49 19.6 i F51 – Pan-STARRS 1, Haleakala MPS 387723
2013 01 18.23440 05 35 10.182 +14 27 59.93 20.4 r F51 – Pan-STARRS 1, Haleakala MPS 453073
2013 01 18.24587 05 35 09.777 +14 28 01.09 20.8 r F51 – Pan-STARRS 1, Haleakala MPS 453073
2014 04 02.24806 12 20 10.49 -03 39 56.3 20.5 V G96 – Mt. Lemmon Survey MPS 509536
2014 04 02.25273 12 20 10.19 -03 39 54.1 20.7 V G96 – Mt. Lemmon Survey MPS 509536
2014 04 02.25740 12 20 09.96 -03 39 51.6 20.8 V G96 – Mt. Lemmon Survey MPS 509536
2014 04 02.26208 12 20 09.71 -03 39 49.3 20.5 V G96 – Mt. Lemmon Survey MPS 509536
2014 04 04.40047 12 18 20.835 -03 23 23.59 20.9 w F51 – Pan-STARRS 1, Haleakala MPS 510848
2014 04 04.41183 12 18 20.236 -03 23 18.40 21.1 w F51 – Pan-STARRS 1, Haleakala MPS 510848
2014 04 04.43455 12 18 19.031 -03 23 07.91 21.0 w F51 – Pan-STARRS 1, Haleakala MPS 510848
2015 07 18.33518 21 20 37.85 -05 14 54.0 20.5 r G45 – Space Surveillance Telescope, Atom Site MPS 617303
2015 07 18.34057 21 20 37.68 -05 14 55.2 20.2 r G45 – Space Surveillance Telescope, Atom Site MPS 617303
2015 07 18.34600 21 20 37.50 -05 14 54.8 20.0 r G45 – Space Surveillance Telescope, Atom Site MPS 617303
2015 07 18.35109 21 20 37.34 -05 14 56.0 20.0 r G45 – Space Surveillance Telescope, Atom Site MPS 617303
2015 07 18.35628 21 20 37.11 -05 14 56.3 19.8 r G45 – Space Surveillance Telescope, Atom Site MPS 617303
2015 07 20.33413 21 19 25.88 -05 18 36.9 20.3 r G45 – Space Surveillance Telescope, Atom Site MPS 617303
2015 07 20.33956 21 19 25.61 -05 18 37.9 19.7 r G45 – Space Surveillance Telescope, Atom Site MPS 617303
2015 07 20.34492 21 19 25.45 -05 18 39.5 19.4 r G45 – Space Surveillance Telescope, Atom Site MPS 617303
2015 07 20.35017 21 19 25.25 -05 18 39.4 19.5 r G45 – Space Surveillance Telescope, Atom Site MPS 617303
